Regional Weather Roundup
Issued by NWS Newport/Morehead, NC

Home | Current Version | Previous Version | Text Only | Print | Product List | Glossary On
Versions: 1 2 3 4 5 6 7 8 9 10 11 12 13 14 15 16 17 18 19 20 21 22 23 24 25 26 27 28 29 30 31 32 33 34 35 36 37 38 39 40 41 42 43 44 45 46 47 48 49 50
000
ASUS42 KMHX 301022
RWRMHX
WEATHER ROUNDUP FOR EASTERN NORTH CAROLINA
NATIONAL WEATHER SERVICE NEWPORT/MOREHEAD CITY NC
500 AM EST FRI JAN 30 2015

NOTE: "FAIR" INDICATES FEW OR NO CLOUDS BELOW 12,000 FEET
WITH NO SIGNIFICANT WEATHER AND/OR OBSTRUCTIONS TO VISIBILITY

NCZ015>017-031-032-045>047-102-103-301100-
NORTH COAST

CITY           SKY/WX    TMP DP  RH WIND       PRES   REMARKS
EDENTON        CLOUDY    46  38  73 W8        29.94S
ELIZABETH CITY CLOUDY    46  36  68 SW9       29.93F
KITTY HAWK     CLOUDY    47  38  72 SW8       29.91F
MANTEO         CLOUDY    45  39  81 S6        29.93F

$$

NCZ045>047-081-094-103-104-301100-
CENTRAL COAST

CITY           SKY/WX    TMP DP  RH WIND       PRES   REMARKS
FRISCO         CLOUDY    50  45  83 W10       29.95F
SWANQUARTER    NOT AVBL

$$

NCZ095-097-098-100-101-301100-
SOUTHERN COAST

CITY           SKY/WX    TMP DP  RH WIND       PRES   REMARKS
BEAUFORT       CLOUDY    51  47  86 SW13      29.96F
CEDAR ISLAND   NOT AVBL
JACKSONVILLE   MOCLDY    49  42  77 SW7       29.96F
PINEY ISLAND     N/A    N/A N/A N/A MISG      29.95F
WILMINGTON     CLOUDY    50  44  80 SW7       29.98F


$$

NCZ011>013-027>030-043-044-078>080-089-090>093-098-301100-
COASTAL PLAIN

CITY           SKY/WX    TMP DP  RH WIND       PRES   REMARKS
AHOSKIE        CLOUDY    39  32  76 CALM      29.94S
CLINTON        DRIZZLE   47  41  78 W6        29.97F
ELIZABETHTOWN  RAIN      48  42  79 SW5       29.97S
GOLDSBORO      CLOUDY    44  43  98 CALM      29.94F
GREENVILLE     CLOUDY    45  37  76 SW6       29.97S
HAVELOCK       CLOUDY    51  41  68 SW8       29.97F
KENANSVILLE    CLOUDY    45  40  82 SW5       29.97S
KINSTON        CLOUDY    47  40  76 SW7       29.96S
NEW BERN       MOCLDY    50  40  68 SW6       29.97S
RICHLANDS      CLOUDY    46  39  76 SW7       29.97S
ROCKY MOUNT    CLOUDY    43  34  70 SW8       29.96R
WASHINGTON     CLOUDY    45  38  74 SW6       29.95S
WHITEVILLE     MOCLDY    48  42  78 SW5       29.97F

$$

AMZ130-135-150-152-154-156-158-170-250-252-270-ANZ085-086-088-633-658-670-301100-
MARINE OBSERVATIONS

STATION/POSITION TIME  TEMP    WIND        PRES    WAVE   SWELL
                       AIR SEA DIR/SP/G            HT/PER HT/PER
                 (UTC) (F)     (DEG/KT/KT) (MB)    (FT/S) (FT/S)
CHESAPEAKE LIGHT 1000   43     240/ 13/ 13 1012.9
64 E VA BEACH    1000   49 48  240/ 16/ 19 1012.3    4/ 4   2/11
DUCK             1000   45 44  230/ 10/ 12 1012.2
2 E DUCK         1000      43                N/A     2/11   2/11
10 NE DUCK       1000      44                N/A     2/11   2/11
OREGON INLET     1000   44 43  210/  8/  9 1013.4
13E OREGON INLT  1000      43                N/A     3/10   2/12
HATTERAS CG      1000   51 44  240/ 11/ 14 1014.2
DIAMOND BUOY     1000   60 70  260/ 25/ 31 1013.6    7/ 6   2/11
17 S OCRACOKE    NOT AVBL
CAPE LOOKOUT     1000   54     240/ 12/ 16 1014.4
BEAUFORT LAB     1000   52 47  240/  7/ 12 1013.4
27 SE WRIGHTSVLE NOT AVBL
5 SE WRIGHTSVLE  1000   54 52  240/ 12/ 14 1014.8
225 S CAPE HAT   0946   64 71  230/ 17/ 23 1018.8    4/10   3/10
41 SE CHARLESTON 1000   63 68  250/ 23/ 27 1016.5    6/ 6   2/ 9

$$


USA.gov is the U.S. government's official web portal to all federal, state and local government web resources and services.